| time (UTC) | temp F | wind direction | speed MPH | gust MPH | rain 1hr in | rain 24hr in | rain mn in | humidity % | barometer mb |
| 20260503000004 | 68 | 346 | 3.0 | 8.0 | 0.00 | 0.56 | 0.32 | 45 | 1016.7 |
| 20260502235403 | 68 | 349 | 3.0 | 8.0 | 0.00 | 0.56 | 0.32 | 45 | 1016.6 |
| 20260502234524 | 68 | 348 | 4.0 | 11.0 | 0.00 | 0.57 | 0.32 | 43 | 1016.3 |
| 20260502233604 | 68 | 346 | 5.0 | 13.0 | 0.00 | 0.57 | 0.32 | 42 | 1016.2 |
| 20260502232703 | 69 | 1 | 4.0 | 12.0 | 0.00 | 0.57 | 0.32 | 42 | 1016.1 |
| 20260502231803 | 69 | 2 | 5.0 | 14.0 | 0.00 | 0.57 | 0.32 | 41 | 1016.0 |
| 20260502230903 | 69 | 350 | 5.0 | 11.0 | 0.00 | 0.57 | 0.32 | 42 | 1015.9 |
| 20260502230004 | 69 | 1 | 5.0 | 16.0 | 0.00 | 0.57 | 0.32 | 42 | 1016.0 |
| 20260502225403 | 69 | 359 | 6.0 | 17.0 | 0.00 | 0.57 | 0.32 | 43 | 1015.8 |
| 20260502224504 | 69 | 5 | 5.0 | 17.0 | 0.00 | 0.57 | 0.32 | 42 | 1015.9 |
| 20260502223624 | 70 | 342 | 6.0 | 12.0 | 0.00 | 0.57 | 0.32 | 43 | 1015.8 |
| 20260502222725 | 70 | 343 | 8.0 | 14.0 | 0.00 | 0.57 | 0.32 | 42 | 1016.0 |
| 20260502221803 | 70 | 330 | 6.0 | 15.0 | 0.00 | 0.57 | 0.32 | 41 | 1015.8 |
| 20260502220903 | 70 | 343 | 5.0 | 14.0 | 0.00 | 0.57 | 0.32 | 44 | 1015.7 |
| 20260502220003 | 70 | 337 | 5.0 | 16.0 | 0.00 | 0.57 | 0.32 | 43 | 1015.6 |
| 20260502215403 | 70 | 340 | 6.0 | 15.0 | 0.00 | 0.57 | 0.32 | 45 | 1015.5 |
| 20260502214503 | 70 | 337 | 6.0 | 15.0 | 0.00 | 0.57 | 0.32 | 44 | 1015.6 |
| 20260502213603 | 70 | 14 | 5.0 | 12.0 | 0.00 | 0.57 | 0.32 | 42 | 1015.6 |
| 20260502212703 | 70 | 353 | 5.0 | 14.0 | 0.00 | 0.57 | 0.32 | 44 | 1015.6 |
| 20260502211803 | 70 | 13 | 4.0 | 12.0 | 0.00 | 0.57 | 0.32 | 44 | 1015.5 |
| 20260502210905 | 70 | 3 | 5.0 | 13.0 | 0.00 | 0.57 | 0.32 | 45 | 1015.7 |
| 20260502210005 | 70 | 339 | 6.0 | 16.0 | 0.00 | 0.57 | 0.32 | 46 | 1015.6 |
| 20260502205404 | 70 | 353 | 5.0 | 14.0 | 0.00 | 0.57 | 0.32 | 45 | 1015.6 |
| 20260502204525 | 70 | 11 | 5.0 | 12.0 | 0.00 | 0.57 | 0.32 | 44 | 1015.6 |
| 20260502203626 | 70 | 10 | 5.0 | 14.0 | 0.00 | 0.57 | 0.32 | 47 | 1015.7 |
| 20260502202704 | 69 | 357 | 6.0 | 16.0 | 0.00 | 0.57 | 0.32 | 45 | 1015.7 |
| 20260502201805 | 70 | 3 | 4.0 | 14.0 | 0.00 | 0.57 | 0.32 | 46 | 1015.7 |
| 20260502200904 | 69 | 3 | 6.0 | 15.0 | 0.00 | 0.57 | 0.32 | 48 | 1015.8 |
| 20260502200004 | 69 | 331 | 8.0 | 20.0 | 0.00 | 0.57 | 0.32 | 44 | 1015.8 |
| 20260502195405 | 69 | 341 | 6.0 | 18.0 | 0.00 | 0.57 | 0.32 | 45 | 1015.8 |
| 20260502194505 | 69 | 5 | 4.0 | 13.0 | 0.00 | 0.57 | 0.32 | 49 | 1015.9 |
| 20260502193604 | 69 | 17 | 4.0 | 10.0 | 0.00 | 0.57 | 0.32 | 46 | 1015.9 |
| 20260502192704 | 69 | 340 | 7.0 | 15.0 | 0.00 | 0.57 | 0.32 | 47 | 1015.9 |
| 20260502191804 | 69 | 349 | 6.0 | 14.0 | 0.00 | 0.57 | 0.32 | 47 | 1015.8 |
| 20260502190904 | 69 | 348 | 6.0 | 18.0 | 0.00 | 0.57 | 0.32 | 48 | 1015.8 |
| 20260502190005 | 68 | 328 | 8.0 | 15.0 | 0.00 | 0.57 | 0.32 | 46 | 1015.9 |
| 20260502185404 | 68 | 335 | 8.0 | 15.0 | 0.00 | 0.57 | 0.32 | 47 | 1015.9 |
| 20260502184504 | 68 | 339 | 8.0 | 15.0 | 0.00 | 0.57 | 0.32 | 50 | 1015.9 |
| 20260502183625 | 68 | 327 | 8.0 | 16.0 | 0.00 | 0.57 | 0.32 | 52 | 1016.0 |
| 20260502182704 | 68 | 333 | 8.0 | 18.0 | 0.00 | 0.57 | 0.32 | 49 | 1015.8 |
| 20260502181804 | 68 | 342 | 7.0 | 15.0 | 0.00 | 0.57 | 0.32 | 53 | 1015.8 |
| 20260502180904 | 68 | 335 | 8.0 | 17.0 | 0.00 | 0.57 | 0.32 | 56 | 1015.7 |
| 20260502163604 | 66 | 331 | 5.0 | 13.0 | 0.00 | 0.57 | 0.32 | 63 | 1015.9 |
| 20260502162704 | 65 | 349 | 5.0 | 13.0 | 0.00 | 0.57 | 0.32 | 62 | 1015.9 |
| 20260502161804 | 65 | 338 | 5.0 | 13.0 | 0.00 | 0.57 | 0.32 | 67 | 1016.1 |
| 20260502160904 | 65 | 347 | 3.0 | 9.0 | 0.00 | 0.57 | 0.32 | 67 | 1016.0 |
| 20260502151825 | 62 | 345 | 4.0 | 11.0 | 0.00 | 0.57 | 0.32 | 77 | 1016.1 |
| 20260502150904 | 62 | 347 | 4.0 | 9.0 | 0.00 | 0.57 | 0.32 | 76 | 1016.0 |
| 20260502123603 | 56 | 332 | 2.0 | 7.0 | 0.00 | 0.57 | 0.32 | 100 | 1014.5 |
| 20260502122703 | 56 | 344 | 1.0 | 4.0 | 0.00 | 0.57 | 0.32 | 100 | 1014.5 |
| 20260502121803 | 56 | 331 | 1.0 | 4.0 | 0.00 | 0.57 | 0.32 | 100 | 1014.4 |
| 20260502120905 | 56 | 322 | 3.0 | 8.0 | 0.00 | 0.57 | 0.32 | 100 | 1014.5 |
| 20260502115405 | 56 | 11 | 1.0 | 5.0 | 0.01 | 0.57 | 0.32 | 100 | 1013.7 |
| 20260502114505 | 56 | 348 | 1.0 | 4.0 | 0.01 | 0.57 | 0.32 | 100 | 1013.7 |
| 20260502113605 | 56 | 17 | 0.0 | 3.0 | 0.01 | 0.57 | 0.32 | 100 | 1013.9 |
| 20260502112705 | 56 | 45 | 0.0 | 3.0 | 0.01 | 0.57 | 0.32 | 100 | 1013.8 |
| 20260502111805 | 56 | 296 | 0.0 | 3.0 | 0.02 | 0.58 | 0.32 | 100 | 1014.4 |
| 20260502110926 | 56 | 308 | 1.0 | 4.0 | 0.02 | 0.58 | 0.32 | 100 | 1014.4 |
| 20260502110005 | 55 | 324 | 2.0 | 6.0 | 0.03 | 0.57 | 0.31 | 100 | 1013.8 |
| 20260502105405 | 55 | 42 | 2.0 | 4.0 | 0.04 | 0.57 | 0.31 | 100 | 1013.0 |
| 20260502104505 | 56 | 5 | 2.0 | 4.0 | 0.04 | 0.57 | 0.31 | 100 | 1012.8 |
| 20260502103605 | 55 | 344 | 1.0 | 4.0 | 0.05 | 0.57 | 0.31 | 100 | 1013.7 |
| 20260502102704 | 55 | 322 | 3.0 | 8.0 | 0.05 | 0.57 | 0.31 | 100 | 1014.5 |
| 20260502100925 | 55 | 338 | 3.0 | 6.0 | 0.06 | 0.56 | 0.30 | 100 | 1013.6 |
| 20260502090904 | 54 | 285 | 1.0 | 2.0 | 0.01 | 0.50 | 0.24 | 99 | 1015.7 |
| 20260502070904 | 54 | 0 | 0.0 | 0.0 | 0.07 | 0.46 | 0.18 | 99 | 1015.1 |
| 20260502070025 | 54 | 256 | 0.0 | 2.0 | 0.09 | 0.46 | 0.18 | 99 | 1014.9 |
| 20260502065425 | 55 | 263 | 0.0 | 2.0 | 0.10 | 0.46 | 0.18 | 99 | 1015.0 |
| 20260502064504 | 55 | 249 | 0.0 | 2.0 | 0.10 | 0.45 | 0.17 | 99 | 1015.1 |
| 20260502063604 | 55 | 229 | 0.0 | 3.0 | 0.10 | 0.44 | 0.16 | 99 | 1015.0 |
| 20260502062704 | 55 | 295 | 0.0 | 1.0 | 0.10 | 0.42 | 0.14 | 99 | 1015.0 |
| 20260502061804 | 55 | 255 | 0.0 | 2.0 | 0.10 | 0.40 | 0.12 | 99 | 1014.9 |
| 20260502060904 | 55 | 302 | 0.0 | 2.0 | 0.10 | 0.39 | 0.11 | 99 | 1015.1 |
| 20260502060004 | 55 | 318 | 0.0 | 1.0 | 0.09 | 0.37 | 0.09 | 99 | 1015.1 |
| 20260502055404 | 55 | 0 | 0.0 | 0.0 | 0.08 | 0.36 | 0.08 | 99 | 1014.8 |
| 20260502054525 | 55 | 0 | 0.0 | 0.0 | 0.08 | 0.35 | 0.07 | 99 | 1014.8 |
| 20260502053604 | 55 | 318 | 0.0 | 1.0 | 0.07 | 0.34 | 0.06 | 98 | 1015.0 |
| 20260502052704 | 55 | 275 | 0.0 | 2.0 | 0.06 | 0.32 | 0.04 | 98 | 1015.3 |
| 20260502051825 | 55 | 306 | 0.0 | 1.0 | 0.04 | 0.30 | 0.02 | 98 | 1015.4 |
| 20260502050904 | 55 | 261 | 1.0 | 2.0 | 0.04 | 0.29 | 0.01 | 98 | 1015.2 |
| 20260502050004 | 55 | 272 | 0.0 | 1.0 | 0.04 | 0.28 | 0.00 | 98 | 1015.2 |
| 20260502045403 | 55 | 257 | 0.0 | 2.0 | 0.05 | 0.28 | 0.28 | 98 | 1015.1 |
| 20260502044504 | 55 | 209 | 0.0 | 2.0 | 0.05 | 0.27 | 0.27 | 98 | 1015.3 |
| 20260502043603 | 55 | 267 | 1.0 | 3.0 | 0.05 | 0.27 | 0.27 | 97 | 1015.1 |
| 20260502042704 | 55 | 126 | 0.0 | 2.0 | 0.04 | 0.26 | 0.26 | 97 | 1015.1 |
| 20260502041803 | 55 | 0 | 0.0 | 0.0 | 0.04 | 0.26 | 0.26 | 97 | 1014.9 |
| 20260502040904 | 55 | 105 | 0.0 | 1.0 | 0.03 | 0.25 | 0.25 | 97 | 1014.8 |
| 20260502040004 | 55 | 105 | 0.0 | 1.0 | 0.03 | 0.24 | 0.24 | 97 | 1014.9 |
| 20260502035403 | 55 | 105 | 0.0 | 1.0 | 0.02 | 0.23 | 0.23 | 97 | 1014.8 |
| 20260502034503 | 55 | 131 | 0.0 | 3.0 | 0.01 | 0.22 | 0.22 | 96 | 1015.0 |
| 20260502033603 | 55 | 147 | 1.0 | 3.0 | 0.02 | 0.22 | 0.22 | 96 | 1015.1 |
| 20260502032703 | 56 | 141 | 1.0 | 3.0 | 0.02 | 0.22 | 0.22 | 97 | 1015.2 |
| 20260502031803 | 56 | 138 | 0.0 | 1.0 | 0.03 | 0.22 | 0.22 | 98 | 1015.2 |
| 20260502030903 | 56 | 0 | 0.0 | 0.0 | 0.05 | 0.22 | 0.22 | 97 | 1015.4 |
| 20260502030005 | 56 | 0 | 0.0 | 0.0 | 0.05 | 0.21 | 0.21 | 97 | 1015.5 |
| 20260502025405 | 56 | 144 | 0.0 | 1.0 | 0.05 | 0.21 | 0.21 | 97 | 1015.5 |
| 20260502024505 | 56 | 148 | 0.0 | 1.0 | 0.07 | 0.21 | 0.21 | 96 | 1015.5 |
| 20260502023605 | 56 | 148 | 0.0 | 1.0 | 0.07 | 0.20 | 0.20 | 96 | 1015.7 |
| 20260502022726 | 56 | 0 | 0.0 | 0.0 | 0.08 | 0.20 | 0.20 | 95 | 1015.8 |
| 20260502021826 | 56 | 0 | 0.0 | 0.0 | 0.09 | 0.19 | 0.19 | 94 | 1016.0 |
| 20260502020905 | 56 | 125 | 0.0 | 1.0 | 0.08 | 0.17 | 0.17 | 93 | 1016.1 |
| 20260502020005 | 56 | 53 | 0.0 | 3.0 | 0.08 | 0.16 | 0.16 | 90 | 1015.8 |
| 20260502015426 | 57 | 53 | 0.0 | 3.0 | 0.09 | 0.16 | 0.16 | 92 | 1015.8 |
| 20260502014505 | 57 | 62 | 1.0 | 3.0 | 0.08 | 0.14 | 0.14 | 92 | 1015.7 |
| 20260502013605 | 58 | 55 | 1.0 | 3.0 | 0.07 | 0.13 | 0.13 | 92 | 1015.5 |
| 20260502012704 | 59 | 36 | 0.0 | 3.0 | 0.07 | 0.12 | 0.12 | 96 | 1015.4 |
| 20260502011805 | 59 | 280 | 0.0 | 1.0 | 0.05 | 0.10 | 0.10 | 96 | 1015.5 |
| 20260502010926 | 59 | 280 | 0.0 | 1.0 | 0.05 | 0.09 | 0.09 | 96 | 1015.7 |
| 20260502010026 | 59 | 280 | 0.0 | 1.0 | 0.04 | 0.08 | 0.08 | 96 | 1015.8 |
| 20260502005404 | 59 | 280 | 0.0 | 2.0 | 0.03 | 0.07 | 0.07 | 96 | 1015.7 |
| 20260502004505 | 59 | 277 | 0.0 | 3.0 | 0.03 | 0.06 | 0.06 | 95 | 1015.7 |
| 20260502003626 | 60 | 313 | 0.0 | 2.0 | 0.03 | 0.06 | 0.06 | 95 | 1015.6 |
| 20260502002704 | 60 | 297 | 0.0 | 2.0 | 0.02 | 0.05 | 0.05 | 95 | 1015.5 |
| 20260502001804 | 60 | 291 | 1.0 | 2.0 | 0.02 | 0.05 | 0.05 | 94 | 1015.5 |
| 20260502000925 | 60 | 307 | 1.0 | 2.0 | 0.01 | 0.04 | 0.04 | 94 | 1015.0 |